Location: Altenhof
(50.2418°N, 10.8789°E)
Time: 04:48:01
(UTC+00:00)

CZ-4B R/B - Pass Details

Date: 18 February 2020
Orbit: 486 x 652 km, 97.9° (Epoch: 02 April)

Event Time Altitude Azimuth Distance (km) Brightness Sun altitude
Rises 05:12:30 0° 3° (N) 2,666 6.3 -11.9°
Reaches altitude 10° 05:14:56 10° 349° (N) 1,748 5.2 -11.5°
Maximum altitude 05:17:54 23° 296° (WNW) 1,116 3.8 -11.1°
Enters shadow 05:20:19 13° 248° (WSW) 1,538 4.6 -10.7°
